User: anonymous   Login
Location: Unspecified
(0.0000°N, 0.0000°E)
Time: 09:25:40
(UTC+00:00)
Language:

UME 2 Rocket - Orbit

View from above orbital plane
View from above orbital plane
View from above satellite
View from above satellite

Ground track
Ground track

The orbit data is extracted from the following two-line orbital elements,

1 10674U 78018A   17327.57330582 -.00000029 +00000-0 +34694-4 0  9997
2 10674 069.3630 077.2335 0167029 263.6974 178.6004 13.43605352950547
Epoch (UTC): 23 November 2017 13:45:33
Eccentricity: 0.0167029
inclination: 69.3630°
perigee height: 971 km
apogee height: 1221 km
right ascension of ascending node: 77.2335°
argument of perigee: 263.6974°
revolutions per day: 13.43605352
mean anomaly at epoch: 178.6004°
orbit number at epoch: 95054

The dashed part of the orbit path shows where the satellite is in the earth's shadow,  

DLR